Location: Omaha
(41.2590°N, 95.9380°W)
Time: 22:02:22
(UTC-06:00)

Vanguard 2 - All Passes

Search period start: 16 December 2017 00:00
Search period end: 26 December 2017 00:00
Orbit: 553 x 2939 km, 32.9° (Epoch: 16 December)

Date Brightness Start Highest point End Pass type
(mag) Time Alt. Az. Time Alt. Az. Time Alt. Az.
16 Dec - 11:40:01 10° S 11:44:14 12° SSE 11:47:55 10° SE daylight
16 Dec - 13:45:10 10° SW 13:53:48 27° SSE 13:59:40 10° ESE daylight
16 Dec - 15:55:09 10° WSW 16:02:35 38° S 16:07:26 10° ESE daylight
16 Dec - 18:05:42 10° WSW 18:10:29 27° SSW 18:14:08 10° SE visible
17 Dec - 11:54:39 10° S 12:02:21 18° SSE 12:08:19 10° ESE daylight
17 Dec - 14:02:29 10° SW 14:11:52 33° SSE 14:17:59 10° ESE daylight
17 Dec - 16:13:09 10° WSW 16:20:34 40° S 16:25:24 10° ESE daylight
17 Dec - 18:23:59 10° WSW 18:28:17 23° SSW 18:31:42 10° SSE visible
18 Dec - 12:10:45 10° SSW 12:20:27 24° SSE 12:27:26 10° ESE daylight
18 Dec - 14:20:06 10° SW 14:29:56 39° S 14:36:07 10° ESE daylight
18 Dec - 16:31:15 10° WSW 16:38:30 39° S 16:43:16 10° ESE daylight
18 Dec - 18:42:31 10° WSW 18:46:01 17° SSW 18:48:57 10° SSE visible
19 Dec - 10:22:42 10° S 10:28:29 13° SSE 10:33:30 10° ESE daylight
19 Dec - 12:27:31 10° SSW 12:38:32 30° SSE 12:46:03 10° ESE daylight
19 Dec - 14:37:57 10° WSW 14:47:59 43° S 14:54:10 10° ESE daylight
19 Dec - 16:49:26 10° WSW 16:56:25 36° SSW 17:01:03 10° SE daylight
19 Dec - 19:01:35 10° WSW 19:03:42 12° SSW 19:05:35 10° S visible
20 Dec - 10:37:12 10° S 10:46:32 19° SSE 10:53:58 10° ESE daylight
20 Dec - 12:44:43 10° SW 12:56:38 36° SSE 13:04:23 10° E daylight
20 Dec - 14:55:57 10° WSW 15:06:01 46° S 15:12:09 10° ESE daylight
20 Dec - 17:07:41 10° W 17:14:15 32° SSW 17:18:44 10° SE daylight
21 Dec - 10:53:05 10° SSW 11:04:35 25° SSE 11:13:12 10° ESE daylight
21 Dec - 13:02:16 10° SW 13:14:42 42° SSE 13:22:34 10° E daylight
21 Dec - 15:14:04 10° WSW 15:24:00 47° S 15:30:04 10° ESE daylight
21 Dec - 17:26:04 10° W 17:32:00 26° SSW 17:36:14 10° SSE visible
22 Dec - 09:06:09 10° SSE 09:12:14 13° SE 09:17:45 10° ESE daylight
22 Dec - 11:09:40 10° SSW 11:22:39 32° SSE 11:31:55 10° E daylight
22 Dec - 13:20:02 10° WSW 13:32:47 48° S 13:40:39 10° E daylight
22 Dec - 15:32:15 10° W 15:41:57 46° S 15:47:55 10° ESE daylight
22 Dec - 17:44:39 10° WSW 17:49:40 20° SSW 17:53:27 10° SSE visible
23 Dec - 09:20:07 10° S 09:30:12 19° SE 09:38:45 10° ESE daylight
23 Dec - 11:26:44 10° SW 11:40:43 38° SSE 11:50:20 10° E daylight
23 Dec - 13:38:00 10° WSW 13:50:51 51° S 13:58:40 10° ESE daylight
23 Dec - 15:50:31 10° W 15:59:51 42° SSW 16:05:40 10° SE daylight
23 Dec - 18:03:39 10° WSW 18:07:14 15° SW 18:10:11 10° S visible
24 Dec - 09:35:41 10° SSW 09:48:10 25° SSE 09:58:15 10° E daylight
24 Dec - 11:44:08 10° SW 11:58:47 44° SSE 12:08:35 10° E daylight
24 Dec - 13:56:06 10° WSW 14:08:53 53° S 14:16:37 10° ESE daylight
24 Dec - 16:08:50 10° W 16:17:41 36° SSW 16:23:19 10° SE daylight
25 Dec - 07:51:14 10° SSE 07:55:42 11° SE 08:00:00 10° ESE daylight
25 Dec - 09:52:03 10° SSW 10:06:07 32° SSE 10:17:08 10° E daylight
25 Dec - 12:01:48 10° SW 12:16:52 50° SSE 12:26:44 10° E daylight
25 Dec - 14:14:17 10° WSW 14:26:55 53° S 14:34:32 10° ESE daylight
25 Dec - 16:27:17 10° W 16:35:23 30° SSW 16:40:47 10° SSE daylight
